This demonstration page uses our WeatherBlox Daily Observations layout. Learn more.

Left ArrowRight Arrow

Hourly Observations for May 6, 2019

Temp ( °F °C ) Dew Point ( °F °C ) Humidity (%) Winds ( mph kmh ) Pressure ( in mb ) Visibility ( mi km ) Precip ( " mm )
12:52 am 00:52 Cloudy with Light Rain 61 16.1 54 12.2 78 78 WNW 3 6 29.83 1010 10 16 0.01 0.25
1:52 am 01:52 Mostly Cloudy 57 13.9 53 11.7 87 87 N 8 13 29.83 1010 9 14 0.00 0.03
2:52 am 02:52 Mostly Clear 58 14.4 53 11.7 84 84 N 13 20 29.86 1011 10 16 0.00 0.00
3:43 am 03:43 Mostly Cloudy 57 13.9 52 11.1 83 83 N 14 22 29.92 1013 10 16 0.00 0.00
3:52 am 03:52 Mostly Cloudy 57 13.9 51 10.6 81 81 N 14 22 29.90 1013 10 16 0.00 0.00
4:52 am 04:52 Mostly Cloudy 53 11.7 44 6.7 72 72 N 14 22 29.93 1014 10 16 0.00 0.00
5:52 am 05:52 Mostly Cloudy 52 11.1 43 6.1 72 72 N 15 24 29.96 1015 10 16 0.00 0.00
6:52 am 06:52 Partly Cloudy 51 10.6 43 6.1 74 74 N 16 26 29.98 1015 10 16 0.00 0.00
7:52 am 07:52 Mostly Sunny 52 11.1 41 5 66 66 NNE 16 26 30.00 1016 10 16 0.00 0.00
8:52 am 08:52 Partly Cloudy 55 12.8 41 5 59 59 NNE 14 22 30.03 1017 10 16 0.00 0.00
9:52 am 09:52 Mostly Cloudy 58 14.4 41 5 53 53 NE 14 22 30.04 1017 10 16 0.00 0.00
10:52 am 10:52 Mostly Cloudy 60 15.6 42 5.6 52 52 NNE 12 19 30.05 1018 10 16 0.00 0.00
11:52 am 11:52 Mostly Cloudy 63 17.2 44 6.7 50 50 ENE 14 22 30.03 1017 10 16 0.00 0.00
12:52 pm 12:52 Mostly Cloudy 66 18.9 45 7.2 47 47 NE 16 26 30.01 1016 10 16 0.00 0.00
1:36 pm 13:36 Mostly Cloudy 66 18.9 46 7.8 49 49 NE 9 15 30.01 1016 10 16 0.00 0.00
1:52 pm 13:52 Mostly Cloudy 66 18.9 46 7.8 49 49 ENE 13 20 30.02 1017 10 16 0.00 0.00
2:52 pm 14:52 Cloudy with Light Rain 62 16.7 47 8.3 58 58 N 17 28 30.04 1017 10 16 0.00 0.03
3:52 pm 15:52 Cloudy with Rain 58 14.4 49 9.4 72 72 N 14 22 30.04 1017 7 11 0.01 0.25
4:52 pm 16:52 Cloudy with Light Rain 57 13.9 50 10 78 78 ENE 8 13 30.05 1018 5 8 0.06 1.52
5:52 pm 17:52 Cloudy with Light Rain 56 13.3 50 10 81 81 ESE 14 22 30.04 1017 5 8 0.09 2.29
6:52 pm 18:52 Cloudy with Light Rain 56 13.3 51 10.6 84 84 E 14 22 30.01 1016 6 10 0.04 1.02
7:52 pm 19:52 Mostly Cloudy 56 13.3 51 10.6 84 84 N 12 19 30.04 1017 7 11 0.00 0.03
8:42 pm 20:42 Mostly Cloudy 56 13.3 50 10 81 81 N 16 26 30.06 1018 10 16 0.00 0.00
8:52 pm 20:52 Cloudy 55 12.8 49 9.4 80 80 N 17 28 30.07 1018 10 16 0.00 0.00
9:04 pm 21:04 Mostly Cloudy 55 12.8 49 9.4 80 80 NNE 13 20 30.07 1018 10 16 0.00 0.00
9:52 pm 21:52 Mostly Cloudy 54 12.2 48 8.9 80 80 NNE 13 20 30.08 1019 10 16 0.00 0.00
10:52 pm 22:52 Mostly Cloudy 54 12.2 47 8.3 77 77 N 12 19 30.07 1018 10 16 0.00 0.00
11:52 pm 23:52 Cloudy 55 12.8 46 7.8 72 72 NNE 8 13 30.06 1018 10 16 0.00 0.00

Powered by AerisWeather